Fort Polk, LA

3:06 PM CDT on June 25, 2017 (GMT -0500)
Polk Army Air Field

Weather History for KPOE - February, 2013

Change the Weather History Date:

Friday, February 8, 2013

  Actual Average Record
Temperature  
Mean Temperature 53 °F -  
Max Temperature 60 °F 59 °F 84 °F (2017)
Min Temperature 46 °F 41 °F 27 °F (2011)
Degree Days  
Heating Degree Days 12    
Growing Degree Days 3 (Base 50)    
Moisture  
Dew Point 52 °F    
Average Humidity 85    
Maximum Humidity 94    
Minimum Humidity 72    
Precipitation  
Precipitation 0.00 in - - ()
Sea Level Pressure  
Sea Level Pressure 30.09 in    
Wind  
Wind Speed 6 mph (NNW)    
Max Wind Speed 14 mph    
Max Gust Speed 21 mph    
Visibility 10 miles    
Events      
Averages and records for this station are not official NWS values.
T = Trace of Precipitation, MM = Missing Value Source: NWS Daily Summary

Daily Weather History Graph

Daily Weather History Graph

Search for Another Location

Airport or City:

Trip Planner

Search our weather history database for the weather conditions in past years. The results will help you decide how hot, cold, wet, or windy it might be!

Date:

Astronomy

Feb. 08, 2013 Rise Set
Actual Time 6:59 AM CST 5:54 PM CST
Civil Twilight 6:34 AM CST 6:19 PM CST
Nautical Twilight 6:05 AM CST 6:48 PM CST
Astronomical Twilight 5:37 AM CST 7:16 PM CST
Moon 5:25 AM CST (2/8) 4:30 PM CST (2/8)
Length of Visible Light 11h 45m
Length of Day
10h 55m
Waning Crescent, 3% of the Moon is Illuminated
Feb 8
Waning Crescent
Feb 10
New
Feb 17
First Quarter
Feb 25
Full
Mar 4
Last Quarter

Hourly Weather History & Observations

Time (CST) Temp. Dew Point Humidity Pressure Visibility Wind Dir Wind Speed Gust Speed Precip Events Conditions
12:55 AM 59.0 °F 57.0 °F 93% 29.99 in 7.0 mi Calm Calm - N/A   Overcast
1:47 AM 60.8 °F 57.2 °F 88% 29.98 in 9.0 mi SW 4.6 mph - N/A   Overcast
1:55 AM 60.1 °F 57.9 °F 93% 29.99 in 9.0 mi West 4.6 mph - N/A   Overcast
2:02 AM 60.8 °F 57.2 °F 88% 29.98 in 9.0 mi WSW 8.1 mph - N/A   Overcast
2:16 AM 60.8 °F 57.2 °F 88% 29.97 in 8.0 mi WSW 4.6 mph - N/A   Overcast
2:27 AM 60.8 °F 57.2 °F 88% 29.97 in 8.0 mi Calm Calm - N/A   Overcast
2:55 AM 60.1 °F 57.9 °F 93% 29.99 in 9.0 mi West 3.5 mph - N/A   Overcast
3:14 AM 60.8 °F 57.2 °F 88% 29.98 in 9.0 mi WSW 5.8 mph - N/A   Overcast
3:55 AM 60.1 °F 57.9 °F 93% 29.99 in 8.0 mi West 6.9 mph - N/A   Overcast
4:26 AM 59.0 °F 57.2 °F 94% 30.00 in 10.0 mi WNW 10.4 mph - N/A   Overcast
4:55 AM 59.0 °F 55.0 °F 87% 30.02 in 10.0 mi NW 10.4 mph 19.6 mph N/A   Overcast
5:23 AM 59.0 °F 53.6 °F 82% 30.02 in 10.0 mi NNW 10.4 mph - N/A   Overcast
5:55 AM 57.9 °F 54.0 °F 87% 30.04 in 10.0 mi NW 11.5 mph - N/A   Overcast
6:55 AM 57.9 °F 54.0 °F 87% 30.06 in 10.0 mi NW 13.8 mph 20.7 mph N/A   Mostly Cloudy
7:17 AM 57.2 °F 53.6 °F 88% 30.07 in 10.0 mi NW 12.7 mph 19.6 mph N/A   Overcast
7:55 AM 57.0 °F 53.1 °F 87% 30.09 in 10.0 mi NNW 12.7 mph 20.7 mph N/A   Overcast
8:55 AM 57.0 °F 52.0 °F 83% 30.12 in 10.0 mi NNW 11.5 mph 19.6 mph N/A   Overcast
9:55 AM 57.9 °F 52.0 °F 81% 30.14 in 10.0 mi NNW 13.8 mph 18.4 mph N/A   Overcast
10:55 AM 59.0 °F 52.0 °F 78% 30.17 in 10.0 mi North 9.2 mph - N/A   Overcast
11:55 AM 57.9 °F 52.0 °F 81% 30.17 in 10.0 mi North 8.1 mph - N/A   Overcast
12:10 PM 59.0 °F 51.8 °F 77% 30.16 in 10.0 mi NNE 6.9 mph - N/A   Overcast
12:55 PM 60.1 °F 51.1 °F 72% 30.15 in 10.0 mi North 10.4 mph - N/A   Overcast
1:55 PM 57.9 °F 51.1 °F 78% 30.14 in 10.0 mi North 9.2 mph 17.3 mph N/A   Overcast
2:55 PM 57.0 °F 50.0 °F 77% 30.14 in 10.0 mi NNE 9.2 mph - N/A   Overcast
3:55 PM 57.0 °F 48.9 °F 74% 30.15 in 10.0 mi NNE 8.1 mph - N/A   Overcast
4:55 PM 55.9 °F 50.0 °F 80% 30.17 in 10.0 mi Calm Calm - N/A   Overcast
5:55 PM 55.0 °F 48.9 °F 80% 30.18 in 10.0 mi NNE 6.9 mph - N/A   Overcast
6:55 PM 54.0 °F 48.0 °F 80% 30.18 in 10.0 mi NNE 3.5 mph - N/A   Overcast
7:35 PM 51.8 °F 48.2 °F 88% 30.17 in 10.0 mi NNE 3.5 mph - N/A   Scattered Clouds
7:55 PM 51.1 °F 46.9 °F 86% 30.19 in 10.0 mi NNE 4.6 mph - N/A   Clear
8:55 PM 50.0 °F 46.9 °F 89% 30.19 in 10.0 mi Calm Calm - N/A   Clear
9:55 PM 46.9 °F 45.0 °F 93% 30.19 in 10.0 mi NNE 4.6 mph - N/A   Clear
10:55 PM 48.9 °F 43.0 °F 80% 30.18 in 10.0 mi ENE 8.1 mph - N/A   Clear
11:55 PM 46.9 °F 41.0 °F 80% 30.17 in 10.0 mi ENE 6.9 mph - N/A   Clear